GW7074 Weather Reports


time (UTC)temp
C
wind
direction
speed
KPH
gust
KPH
rain 1hr
cm
rain 24hr
cm
rain mn
cm
humidity
%
barometer
mb
20260504185905 27 211 3.2 4.8 0.00 0.00 0.00 58 1013.3
20260504185403 28 223 3.2 3.2 0.00 0.00 0.00 56 1013.3
20260504184858 28 222 3.2 3.2 0.00 0.00 0.00 57 1013.4
20260504184354 27 205 4.8 9.7 0.00 0.00 0.00 58 1013.6
20260504183850 28 221 1.6 3.2 0.00 0.00 0.00 56 1013.5
20260504183348 28 188 4.8 6.4 0.00 0.00 0.00 56 1013.7
20260504182845 27 245 3.2 4.8 0.00 0.00 0.00 58 1013.7
20260504182343 28 242 4.8 6.4 0.00 0.00 0.00 55 1013.8
20260504181839 27 203 6.4 9.7 0.00 0.00 0.00 57 1013.6
20260504181337 27 204 4.8 6.4 0.00 0.00 0.00 58 1013.7
20260504180836 27 196 1.6 4.8 0.00 0.00 0.00 57 1013.8
20260504180334 26 228 4.8 6.4 0.00 0.00 0.00 59 1013.8
20260504175832 27 147 6.4 9.7 0.00 0.00 0.00 59 1014.1
20260504175328 27 191 3.2 3.2 0.00 0.00 0.00 57 1014.1
20260504174826 27 228 0.0 1.6 0.00 0.00 0.00 62 1014.3
20260504174323 27 125 9.7 12.9 0.00 0.00 0.00 55 1014.4
20260504173820 27 191 3.2 4.8 0.00 0.00 0.00 58 1014.4
20260504173317 27 256 6.4 6.4 0.00 0.00 0.00 55 1014.3
20260504172814 27 172 4.8 9.7 0.00 0.00 0.00 55 1014.3
20260504172311 27 146 4.8 6.4 0.00 0.00 0.00 59 1014.6
20260504171806 26 290 4.8 6.4 0.00 0.00 0.00 61 1014.7
20260504171304 26 173 6.4 11.3 0.00 0.00 0.00 60 1014.7
20260504170801 26 210 6.4 9.7 0.00 0.00 0.00 63 1014.7
20260504170258 26 208 3.2 9.7 0.00 0.00 0.00 62 1015.0
20260504160216 24 222 3.2 4.8 0.00 0.00 0.00 65 1015.7
20260504151144 23 149 6.4 6.4 0.00 0.00 0.00 70 1015.8
20260504150641 25 225 3.2 4.8 0.00 0.00 0.00 68 1015.5
20260504150138 23 225 6.4 9.7 0.00 0.00 0.00 67 1015.3
20260504141107 23 245 3.2 4.8 0.00 0.00 0.00 69 1015.4
20260504140603 22 229 3.2 3.2 0.00 0.00 0.00 71 1015.7
20260504130528 18 208 1.6 1.6 0.00 0.00 0.00 77 1015.4
20260504110415 13 233 0.0 0.0 0.00 0.00 0.00 93 1015.4
20260504100331 14 230 0.0 0.0 0.00 0.00 0.00 90 1015.4
20260504081725 14 232 0.0 0.0 0.00 0.00 0.00 89 1016.0
20260504081222 13 232 0.0 0.0 0.00 0.00 0.00 89 1016.1
20260504080718 14 232 0.0 0.0 0.00 0.00 0.00 88 1016.2
20260504080215 14 232 0.0 0.0 0.00 0.00 0.00 88 1016.4
20260504070142 15 236 0.0 0.0 0.00 0.00 0.00 86 1017.3
20260504050531 16 228 0.0 0.0 0.00 0.00 0.00 77 1018.3
20260504045525 16 227 0.0 0.0 0.00 0.00 0.00 76 1018.1
20260504045020 16 227 0.0 0.0 0.00 0.00 0.00 75 1018.3
20260504044518 16 225 0.0 0.0 0.00 0.00 0.00 75 1018.2
20260504044015 16 225 0.0 0.0 0.00 0.00 0.00 74 1018.2
20260504043512 17 225 0.0 0.0 0.00 0.00 0.00 73 1018.3
20260504043009 17 232 0.0 0.0 0.00 0.00 0.00 72 1018.3
20260504042506 17 229 0.0 0.0 0.00 0.00 0.00 71 1018.4
20260504042003 17 233 0.0 0.0 0.00 0.00 0.00 71 1018.5
20260504041459 17 231 0.0 0.0 0.00 0.00 0.00 70 1018.4
20260504040954 17 227 0.0 0.0 0.00 0.00 0.00 70 1018.3
20260504040453 17 226 0.0 0.0 0.00 0.00 0.00 70 1018.5
20260504035948 18 228 0.0 0.0 0.00 0.00 0.00 69 1018.4
20260504035446 18 224 1.6 1.6 0.00 0.00 0.00 68 1018.2
20260504034942 18 225 0.0 1.6 0.00 0.00 0.00 69 1018.2
20260504034440 18 228 1.6 1.6 0.00 0.00 0.00 68 1018.3
20260504033937 18 227 0.0 1.6 0.00 0.00 0.00 68 1018.4
20260504033435 18 224 1.6 1.6 0.00 0.00 0.00 67 1018.3
20260504032932 18 208 1.6 3.2 0.00 0.00 0.00 67 1018.3
20260504032428 18 225 1.6 1.6 0.00 0.00 0.00 67 1018.3
20260504031925 18 225 1.6 1.6 0.00 0.00 0.00 67 1018.5
20260504031422 18 225 1.6 1.6 0.00 0.00 0.00 66 1018.3
20260504030919 18 221 3.2 4.8 0.00 0.00 0.00 66 1018.1
20260504030416 19 225 0.0 0.0 0.00 0.00 0.00 65 1018.2
20260504025912 19 231 1.6 1.6 0.00 0.00 0.00 64 1018.3
20260504025409 19 229 0.0 0.0 0.00 0.00 0.00 63 1018.3
20260504024906 19 191 3.2 4.8 0.00 0.00 0.00 63 1018.4
20260504024402 19 229 1.6 1.6 0.00 0.00 0.00 63 1018.2
20260504023900 20 229 0.0 0.0 0.00 0.00 0.00 63 1018.1
20260504023356 20 245 1.6 3.2 0.00 0.00 0.00 62 1018.0
20260504022851 20 221 1.6 3.2 0.00 0.00 0.00 62 1018.1
20260504022349 20 185 3.2 3.2 0.00 0.00 0.00 62 1018.0
20260504021845 20 221 1.6 1.6 0.00 0.00 0.00 61 1018.0
20260504021342 20 206 3.2 3.2 0.00 0.00 0.00 61 1018.0
20260504020839 20 234 1.6 1.6 0.00 0.00 0.00 61 1018.1
20260504020336 20 228 0.0 0.0 0.00 0.00 0.00 60 1018.1
20260504015832 20 219 3.2 3.2 0.00 0.00 0.00 59 1018.0
20260504015328 20 217 3.2 3.2 0.00 0.00 0.00 57 1018.1
20260504014825 20 163 4.8 4.8 0.00 0.00 0.00 58 1017.6
20260504014321 21 229 3.2 3.2 0.00 0.00 0.00 57 1017.9
20260504013819 21 222 1.6 1.6 0.00 0.00 0.00 58 1017.6
20260504013316 21 207 3.2 3.2 0.00 0.00 0.00 57 1017.6
20260504012813 21 192 3.2 4.8 0.00 0.00 0.00 56 1017.7
20260504012311 21 215 4.8 6.4 0.00 0.00 0.00 56 1017.9
20260504011808 21 203 1.6 3.2 0.00 0.00 0.00 56 1017.8
20260504011304 21 209 3.2 3.2 0.00 0.00 0.00 55 1017.6
20260504010800 21 230 0.0 0.0 0.00 0.00 0.00 54 1017.6
20260504010255 22 219 1.6 3.2 0.00 0.00 0.00 54 1017.6
20260504005753 22 154 4.8 4.8 0.00 0.00 0.00 54 1017.5
20260504005249 22 251 1.6 3.2 0.00 0.00 0.00 54 1017.6
20260504004747 22 219 1.6 1.6 0.00 0.00 0.00 54 1017.4
20260504004244 22 221 3.2 4.8 0.00 0.00 0.00 52 1017.6
20260504003740 22 228 0.0 0.0 0.00 0.00 0.00 52 1017.8
20260504003238 22 226 0.0 1.6 0.00 0.00 0.00 51 1017.7
20260504002734 22 226 1.6 1.6 0.00 0.00 0.00 52 1017.7
20260504002231 23 225 1.6 1.6 0.00 0.00 0.00 52 1017.5
20260504001729 23 221 0.0 1.6 0.00 0.00 0.00 50 1017.7
20260504001226 23 199 1.6 3.2 0.00 0.00 0.00 50 1017.7
20260504000722 23 197 4.8 4.8 0.00 0.00 0.00 49 1017.4
20260504000219 23 176 3.2 4.8 0.00 0.00 0.00 51 1017.6
20260503235718 23 239 3.2 6.4 0.00 0.00 0.00 47 1017.6
20260503235215 23 183 6.4 6.4 0.00 0.00 0.00 47 1017.6
20260503234712 24 230 1.6 1.6 0.00 0.00 0.00 48 1017.8
20260503234210 25 252 3.2 4.8 0.00 0.00 0.00 46 1017.7
20260503233707 24 220 3.2 3.2 0.00 0.00 0.00 47 1017.4
20260503233202 24 211 1.6 3.2 0.00 0.00 0.00 49 1017.8
20260503232700 25 226 1.6 3.2 0.00 0.00 0.00 47 1017.6
20260503232157 25 180 3.2 3.2 0.00 0.00 0.00 46 1017.7
20260503231655 25 225 3.2 4.8 0.00 0.00 0.00 46 1017.9
20260503231151 25 186 3.2 6.4 0.00 0.00 0.00 44 1018.0
20260503230648 26 148 4.8 4.8 0.00 0.00 0.00 43 1017.8
20260503230145 26 240 1.6 1.6 0.00 0.00 0.00 44 1017.9
20260503225642 25 164 6.4 9.7 0.00 0.00 0.00 44 1017.8
20260503225142 25 207 4.8 6.4 0.00 0.00 0.00 43 1017.9
20260503224640 25 144 8.0 9.7 0.00 0.00 0.00 42 1017.9
20260503224137 25 187 4.8 4.8 0.00 0.00 0.00 41 1018.0
20260503223636 25 209 3.2 4.8 0.00 0.00 0.00 44 1018.1
20260503223131 25 220 3.2 4.8 0.00 0.00 0.00 42 1018.1
20260503222629 26 138 14.5 17.7 0.00 0.00 0.00 40 1018.0
20260503222126 25 210 3.2 4.8 0.00 0.00 0.00 40 1018.4
20260503221625 26 140 9.7 12.9 0.00 0.00 0.00 38 1018.3
20260503221122 26 206 8.0 11.3 0.00 0.00 0.00 36 1018.4
20260503220619 25 209 3.2 4.8 0.00 0.00 0.00 40 1018.5
20260503220115 26 227 1.6 3.2 0.00 0.00 0.00 37 1018.4
20260503215612 26 180 6.4 9.7 0.00 0.00 0.00 39 1018.7
20260503215109 26 193 6.4 9.7 0.00 0.00 0.00 38 1018.7
20260503214608 26 142 1.6 1.6 0.00 0.00 0.00 38 1018.6
20260503214103 25 218 1.6 1.6 0.00 0.00 0.00 36 1018.6
20260503213602 27 166 6.4 11.3 0.00 0.00 0.00 36 1018.6
20260503213058 27 213 1.6 4.8 0.00 0.00 0.00 37 1018.9
20260503212556 26 179 3.2 3.2 0.00 0.00 0.00 39 1019.0
20260503212053 26 182 8.0 11.3 0.00 0.00 0.00 39 1019.0
20260503211550 26 201 3.2 4.8 0.00 0.00 0.00 37 1019.2
20260503211045 26 226 0.0 1.6 0.00 0.00 0.00 37 1019.1
20260503210543 26 212 3.2 4.8 0.00 0.00 0.00 36 1019.1
20260503210038 27 176 6.4 9.7 0.00 0.00 0.00 37 1019.2
20260503205535 27 199 4.8 9.7 0.00 0.00 0.00 35 1019.2
20260503205032 26 201 6.4 6.4 0.00 0.00 0.00 38 1019.3
20260503204529 26 182 3.2 3.2 0.00 0.00 0.00 36 1019.2
20260503204025 26 215 1.6 3.2 0.00 0.00 0.00 35 1019.5
20260503203523 26 233 0.0 0.0 0.00 0.00 0.00 37 1019.7
20260503203020 26 177 6.4 6.4 0.00 0.00 0.00 39 1019.5
20260503202518 26 230 3.2 3.2 0.00 0.00 0.00 37 1019.7
20260503202015 26 233 0.0 1.6 0.00 0.00 0.00 39 1019.8
20260503201514 26 184 3.2 4.8 0.00 0.00 0.00 40 1019.9
20260503201010 27 137 12.9 16.1 0.00 0.00 0.00 36 1020.0
20260503200506 26 202 6.4 11.3 0.00 0.00 0.00 43 1020.2
20260503200003 26 136 4.8 6.4 0.00 0.00 0.00 40 1020.2
20260503195500 26 78 6.4 11.3 0.00 0.00 0.00 38 1020.2
20260503194957 26 230 6.4 9.7 0.00 0.00 0.00 38 1020.1
20260503194455 27 223 3.2 4.8 0.00 0.00 0.00 38 1020.2
20260503193949 27 238 1.6 1.6 0.00 0.00 0.00 35 1020.4
20260503193445 26 143 4.8 9.7 0.00 0.00 0.00 41 1020.4
20260503192941 26 233 8.0 11.3 0.00 0.00 0.00 36 1020.4
20260503192437 26 190 3.2 9.7 0.00 0.00 0.00 41 1020.5
20260503191933 26 237 1.6 1.6 0.00 0.00 0.00 43 1020.7
20260503191431 27 157 4.8 9.7 0.00 0.00 0.00 42 1020.8
20260503190927 26 258 6.4 9.7 0.00 0.00 0.00 39 1021.1
20260503190425 25 210 1.6 3.2 0.00 0.00 0.00 38 1020.8